EUTE 7C

导读

EUTE 7C(Eutelsat 7C)是欧洲卫星运营商欧空通信(Eutelsat)的大功率广播通信卫星,由Maxar技术公司完成制造测试,于2019年6月20日搭载阿丽亚娜5号火箭自法属圭亚那库鲁航天发射场成功发射。卫星配备49个Ku波段转发器,定点于东经7°轨道,与EUTELSAT 7B共同服务,为非洲、欧洲、中东及土耳其区域增强广播通信覆盖能力,有效支撑非洲市场的服务升级。

基本信息
目录编号:
44334
目录名称:
EUTE 7C
国际标识:
2019-034B
轨道中心:
EARTH
卫星名称:
EUTE 7C
卫星全名:
--
卫星状态:
在轨 (已飞行2581 天)
发射日期:
2019-06-20 UTC
国别 :
(EUTE)
星等 :
--
轨道信息
数据来源 国际轨道数据 AOE轨道数据
星历时间 2026-07-14T04:20:30+0800
11小时前
查看轨道信息
2026-07-14T10:00:00+0800
5小时前
查看轨道信息
半长轴 42165.205km 42164.7km
偏心率 0.0003118 0.0003042
轨道倾角 0.077° 0.077°
近地点辐角 277.868° 281.046°
升交点赤经 181.301° 176.180°
平近点角 144.687° 231.737°
近地点 35773.92km 35773.736km
远地点 35800.216km 35799.39km
周期 1436.121分钟 1436.095分钟
每日圈数 1.002701 1.002719
详细信息
使用方式:
暂无
2D轨道图
3D轨道图
轨道高度分析图
轨道倾角分析图
轨道综合分析图
查看轨道综合分析图